GW3425 Weather Reports


Display with metric or nautical units.
time (UTC)temp
F
wind
direction
speed
MPH
gust
MPH
rain 1hr
in
rain 24hr
in
rain mn
in
humidity
%
barometer
mb
20260506050104 77 44 0.0 4.0 0.00 0.00 0.00 87 1008.3
20260506044547 77 89 2.0 6.0 0.00 0.00 0.00 86 1008.4
20260506043033 77 137 0.0 6.0 0.00 0.00 0.00 86 1008.3
20260506041519 77 109 2.0 5.0 0.00 0.00 0.00 86 1008.1
20260506040004 77 151 1.0 5.0 0.00 0.00 0.00 85 1008.0
20260506034557 78 121 2.0 7.0 0.00 0.00 0.00 85 1008.1
20260506033040 78 116 0.0 2.0 0.00 0.00 0.00 85 1007.6
20260506031532 78 73 1.0 6.0 0.00 0.00 0.00 84 1007.5
20260506030004 78 178 0.0 4.0 0.00 0.00 0.00 84 1007.1
20260506024555 78 102 1.0 5.0 0.00 0.00 0.00 83 1006.7
20260506023058 79 40 1.0 8.0 0.00 0.00 0.00 82 1006.6
20260506021541 79 119 1.0 9.0 0.00 0.00 0.00 82 1006.6
20260506020013 80 229 1.0 6.0 0.00 0.00 0.00 81 1006.2
20260506014606 81 149 1.0 7.0 0.00 0.00 0.00 80 1006.0
20260506013059 81 102 1.0 6.0 0.00 0.00 0.00 78 1006.0
20260506011533 82 115 0.0 3.0 0.00 0.00 0.00 77 1005.9
20260506010019 82 128 0.0 2.0 0.00 0.00 0.00 76 1005.7
20260506004505 83 128 0.0 4.0 0.00 0.00 0.00 75 1005.5
20260506003057 83 205 0.0 4.0 0.00 0.00 0.00 74 1005.5
20260506001541 83 146 0.0 1.0 0.00 0.00 0.00 74 1005.5
20260506000026 84 101 0.0 8.0 0.00 0.00 0.00 73 1005.2
20260505234514 84 129 0.0 4.0 0.00 0.00 0.00 73 1005.1
20260505233106 84 237 1.0 6.0 0.00 0.00 0.00 73 1005.0
20260505231604 85 360 0.0 7.0 0.00 0.00 0.00 72 1004.8
20260505230034 85 169 1.0 6.0 0.00 0.00 0.00 70 1004.8
20260505224518 85 206 3.0 8.0 0.00 0.00 0.00 70 1004.8
20260505223003 85 238 2.0 6.0 0.00 0.00 0.00 71 1005.0
20260505221600 85 230 3.0 11.0 0.00 0.00 0.00 69 1005.1
20260505220039 84 187 0.0 5.0 0.00 0.00 0.00 72 1005.2
20260505214525 85 229 1.0 7.0 0.00 0.00 0.00 70 1005.6
20260505213016 84 194 1.0 5.0 0.00 0.00 0.00 71 1005.7
20260505211600 84 119 0.0 7.0 0.00 0.00 0.00 73 1005.9
20260505210046 85 225 2.0 7.0 0.00 0.00 0.00 71 1006.0
20260505204528 84 128 2.0 8.0 0.00 0.00 0.00 73 1006.4
20260505203022 84 252 1.0 8.0 0.00 0.00 0.00 73 1006.7
20260505201605 83 162 2.0 7.0 0.00 0.00 0.00 72 1006.8
20260505200052 83 165 3.0 8.0 0.00 0.00 0.00 73 1007.0
20260505194533 83 246 3.0 8.0 0.00 0.00 0.00 73 1007.3
20260505193029 83 286 1.0 6.0 0.00 0.00 0.00 74 1007.5
20260505191510 82 119 3.0 7.0 0.00 0.00 0.00 75 1007.8
20260505190056 82 250 3.0 9.0 0.00 0.00 0.00 75 1007.9
20260505184541 81 329 2.0 6.0 0.00 0.00 0.00 79 1008.1
20260505183027 80 175 3.0 9.0 0.00 0.00 0.00 79 1008.3
20260505181510 80 37 2.0 6.0 0.00 0.00 0.00 80 1008.3
20260505180103 79 239 2.0 6.0 0.00 0.00 0.00 80 1008.6
20260505174547 78 204 1.0 7.0 0.00 0.00 0.00 82 1008.6
20260505173032 77 178 1.0 5.0 0.00 0.00 0.00 83 1008.6
20260505171517 76 211 1.0 7.0 0.00 0.00 0.00 85 1008.8
20260505170112 75 142 1.0 8.0 0.00 0.00 0.00 86 1009.1
20260505164553 75 138 1.0 10.0 0.00 0.00 0.00 87 1008.9
20260505163037 74 144 2.0 8.0 0.00 0.00 0.00 88 1008.9
20260505161521 73 133 2.0 7.0 0.00 0.00 0.00 89 1008.9
20260505153023 72 146 2.0 8.0 0.00 0.00 0.00 92 1008.8
20260505151509 71 130 1.0 6.0 0.00 0.00 0.00 92 1008.9
20260505140116 71 69 4.0 11.0 0.00 0.00 0.00 91 1008.7
20260505124559 71 109 3.0 9.0 0.00 0.00 0.00 90 1008.0
20260505123045 71 76 2.0 8.0 0.00 0.00 0.00 90 1007.9
20260505121530 71 115 2.0 7.0 0.00 0.00 0.00 90 1007.7
20260505120016 71 122 5.0 12.0 0.00 0.00 0.00 90 1007.6
20260505114503 70 139 2.0 6.0 0.00 0.00 0.00 91 1007.5
20260505113053 70 103 1.0 6.0 0.00 0.00 0.00 91 1007.7
20260505111542 70 117 1.0 12.0 0.00 0.00 0.00 91 1007.5
20260505101554 70 141 5.0 10.0 0.00 0.00 0.00 90 1007.7
20260505100035 70 119 3.0 9.0 0.00 0.00 0.00 90 1007.9
20260505094519 70 115 3.0 12.0 0.00 0.00 0.00 90 1007.7
20260505093006 70 121 2.0 10.0 0.00 0.00 0.00 91 1007.8
20260505091555 69 109 0.0 8.0 0.00 0.00 0.00 91 1008.1
20260505090055 69 103 2.0 10.0 0.00 0.00 0.00 91 1008.1
20260505084527 69 129 1.0 8.0 0.00 0.00 0.00 91 1008.2
20260505083011 69 360 1.0 9.0 0.00 0.00 0.00 91 1008.4
20260505081604 69 360 1.0 6.0 0.00 0.00 0.00 90 1008.6
20260505080047 69 113 2.0 8.0 0.00 0.00 0.00 90 1008.6
20260505074528 69 106 0.0 8.0 0.00 0.00 0.00 90 1008.8
20260505073014 70 52 3.0 8.0 0.00 0.00 0.00 89 1008.9
20260505071607 70 93 2.0 8.0 0.00 0.00 0.00 89 1009.1
20260505070051 70 110 1.0 6.0 0.00 0.00 0.00 89 1009.3
20260505064536 70 68 1.0 6.0 0.00 0.00 0.00 88 1009.5
20260505063019 70 55 1.0 8.0 0.00 0.00 0.00 88 1009.7
20260505061505 70 93 2.0 7.0 0.00 0.00 0.00 88 1009.8
20260505060055 70 44 2.0 6.0 0.00 0.00 0.00 87 1009.8